Location: Courçay
(47.2523°N, 0.8761°E)
Time: 06:53:07
(UTC+00:00)

Cosmos 2026 Rocket - Pass Details

Date: 18 November 2025
Orbit: 937 x 1000 km, 82.9° (Epoch: 06 December)

Event Time Altitude Azimuth Distance (km) Brightness Sun altitude
Rises 18:13:20 0° 354° (N) 3,615 7.0 -19.4°
Reaches altitude 10° 18:15:54 10° 359° (N) 2,670 6.2 -19.8°
Maximum altitude 18:21:52 55° 77° (ENE) 1,129 3.9 -20.8°
Drops below altitude 10° 18:27:53 10° 155° (SSE) 2,685 6.1 -21.8°
Sets 18:30:26 0° 159° (SSE) 3,636 6.8 -22.3°
